Regional Weather Roundup
Issued by NWS

Home | Current Version | Previous Version | Text Only | Print | Product List | Glossary Off
Versions: 1 2 3 4 5 6 7 8 9 10 11 12 13 14 15 16 17 18 19 20 21 22 23 24 25 26 27

000
ASUS45 KCYS 191910
RWRWY

WYOMING REGIONAL WEATHER ROUNDUP
NATIONAL WEATHER SERVICE CHEYENNE WY
1200 PM MST MON FEB 19 2018

NOTE:  "FAIR" INDICATES FEW OR NO CLOUDS BELOW 12,000 FEET
WITH NO SIGNIFICANT WEATHER AND/OR OBSTRUCTIONS TO VISIBILITY.

WYZ001-192000-
YELLOWSTONE NATIONAL PARK

CITY           SKY/WX    TMP DP  RH WIND       PRES   REMARKS
LK YELLOWSTONE   N/A      3  -2  79 E3        29.44F
W YELLOWSTONE  NOT AVBL

$$
WYZ002>013-054>058-071-098>099-192000-
NORTHERN WYOMING

CITY           SKY/WX    TMP DP  RH WIND       PRES   REMARKS
JACKSON        FAIR      18   5  57 E7        29.46S WCI   9
CODY           LGT SNOW  -3 -11  68 N14       29.78F WCI -22
GREYBULL       LGT SNOW   2  -3  80 NW15      29.87S VSB 1   WCI -17
WORLAND        LGT SNOW   1  -5  75 N14       29.85S VSB 1   WCI -17
SHERIDAN       LGT SNOW   2  -4  76 NW5       29.91R WCI  -8
BUFFALO        LGT SNOW   1  -6  72 N7        29.79F WCI -12
GILLETTE       LGT SNOW   1  -5  75 NE8       29.82F VSB 1   WCI -13
HULETT         LGT SNOW   1  -6  71 MISG      29.86F VSB 1
NEWCASTLE      LGT SNOW   3  -4  72 W3        29.84F VSB 1

$$
WYZ014>020-022>026-101>103-192000-
CENTRAL WYOMING

CITY           SKY/WX    TMP DP  RH WIND       PRES   REMARKS
BIG PINEY      SNOW      12   9  87 S10       29.43R VSB 1/2 WCI  -1
PINEDALE       LGT SNOW  12   9  85 SW10      29.42R VSB 3/4 WCI  -1
DUBOIS         NOT AVBL
LANDER         LGT SNOW   3  -3  76 E7        29.66S WCI  -9
RIVERTON       LGT SNOW   1  -5  75 E7        29.67F VSB 1   WCI -12
CASPER         SNOW      -1  -5  82 NE22      29.66F VSB 1/2 WCI -24
DOUGLAS        LGT SNOW  -1  -6  79 SE9       29.75F WCI -16

$$
WYZ021-027>030-104>119-192000-
SOUTHERN WYOMING

CITY           SKY/WX    TMP DP  RH WIND       PRES   REMARKS
EVANSTON       LGT SNOW  11   6  81 E16       29.43R VSB 3/4 WCI  -6
FORT BRIDGER   LGT SNOW   8   4  86 E13       29.48R VSB 3/4 WCI  -8
ROCK SPRINGS   LGT SNOW   2  -6  69 NE22G32   29.47F VSB 1   WCI -20
DIXON          SNOW      10   3  75 W6        29.42F VSB 1/4 WCI   0
RAWLINS        CLOUDY     2  -5  72 NE17      29.44F HAZE    WCI -18
SARATOGA       FLURRIES   7   1  78 W10       29.39F WCI  -8
LARAMIE        CLOUDY    15   8  73 SE36G43   29.30F WCI  -7
CHEYENNE       LGT SNOW   5   3  91 SE10      29.55F FOG     WCI -10
TORRINGTON     CLOUDY     4  -3  73 NE15      29.77F WCI -14
PINE BLUFFS    CLOUDY     9   1  72 NE9       29.67F WCI  -5

$$




USA.gov is the U.S. government's official web portal to all federal, state and local government web resources and services.